Location: Lombard
(41.8800°N, 88.0080°W)
Time: 06:09:03
(UTC-05:00)

Max Valier Satellite - Visible Passes

Search period start: 22 May 2022 00:00
Search period end: 01 June 2022 00:00
Orbit: 477 x 495 km, 97.2° (Epoch: 21 May)

Date Brightness Start Highest point End Pass type
(mag) Time Alt. Az. Time Alt. Az. Time Alt. Az.
22 May ? 21:19:03 10° SSW 21:22:07 27° W 21:25:12 10° NW visible
23 May ? 20:54:35 10° S 20:58:05 56° W 21:01:36 10° NNW visible
25 May ? 21:41:41 10° SW 21:43:46 15° W 21:45:52 10° NW visible
26 May ? 21:16:28 10° SSW 21:19:35 29° W 21:22:43 10° NW visible
27 May ? 20:51:57 10° S 20:55:28 61° W 20:58:59 10° NNW visible
29 May ? 21:38:39 10° SW 21:40:54 16° W 21:43:09 10° NW visible
30 May ? 21:13:25 10° SSW 21:16:36 31° W 21:19:48 10° NNW visible
31 May ? 20:48:50 10° S 20:52:22 67° W 20:55:55 10° NNW visible
